{"data":{"norad_id":47126,"intl_designator":"2020-088E","name":"STARLINK-1812","alt_names":[],"object_type":"PAYLOAD","status":"ACTIVE","operator":null,"country":"US","launch_date":"2020-11-25","launch_site_code":"AFETR","launch_vehicle":null,"mission":null,"orbit_class":"UNKNOWN","rcs_meters":null,"size_class":null,"mass_kg":null,"dimensions":null,"purposes":["comms"],"wikipedia_slug":null,"has_3d_model":false,"image_url":null,"decayed_at":null,"tle_current":{"epoch":"2026-09-19T21:19:25.294080Z","epoch_age_seconds":74861,"freshness":"FRESH","line1":"1 47126U 20088E   26262.88848720  .00027426  00000+0  10490-2 0  9997","line2":"2 47126  53.0968 128.7506 0003401 117.4872 242.6472 15.26405997321427","mean_motion":15.26405997,"eccentricity":0.0003401,"inclination_deg":53.0968,"raan_deg":128.7506,"arg_perigee_deg":117.4872,"mean_anomaly_deg":242.6472,"bstar":0.001049,"rev_number":32142,"period_min":94.339251996532,"perigee_km":484.23205058885,"apogee_km":488.9014220703,"semimajor_km":6864.7037363296,"source":"CELESTRAK","updated_at":"2026-09-20T09:00:38.587489Z"}}}